SAS7874 WADD-ESSA

Flight info

Callsign SAS7874
Flight time N/A
Altitude 28000
Route BORGI DCT UDONO M635 RAFIS/N0515F300 M635 SURGA T23 JUNHA M635 VTK DCT VJB Y342 AROSO Y513 KALIL Y501 VIH R325 RINBA Y502 DUBAX R325 PUT L515 OBMOG M770 SADUS/N0511F320 M770 KAKID M875 BUTOP/N0499F340 M875 JHANG A466 DI J145 REGET N644 LEMOD A909 NINOP B475 DOLOS B449 MAMED P130 DOLUM/N0491F360 P130 REBLO UM11 CRM UW71 ILHAN UT79 DEREL UL602 MAKOL Q12 ERDOM Y520 UTEKA L610 DONIV DCT PARAK DCT LITKU/N0465F240 Y301 KREMI/N0404F140 B45 BILNA/N0278F080 L617 REGLI/N0477F380 T720 MOLIL DCT MOTAD N133 PENOR DCT ARMOD/N0488F370 Z228 NILUG
Aircraft B77W/H-SDE1E2E3FGHIJ2J3J4J5M1RWXY/LB1D1

Departure

Time 2026-05-06 13:51
Airport Denpasar I Gusti Ngurah Rai International Airport (WADD)

Arrival

Time N/A
Airport Stockholm-Arlanda Airport (ESSA)
Time Latitude Longitude Altitude Speed Heading
2026-05-06 13:26 -8.74549 115.16798 25 ft 0 kts 357°
2026-05-06 13:34 -8.74560 115.16799 29 ft 4 kts 357°
2026-05-06 13:35 -8.74586 115.16801 31 ft 4 kts 351°
2026-05-06 13:35 -8.74612 115.16806 30 ft 4 kts 341°
2026-05-06 13:35 -8.74637 115.16817 30 ft 4 kts 329°
2026-05-06 13:35 -8.74659 115.16832 30 ft 4 kts 320°
2026-05-06 13:36 -8.74672 115.16842 30 ft 1 kts 319°
2026-05-06 13:36 -8.74673 115.16844 30 ft 0 kts 319°
2026-05-06 13:40 -8.74671 115.16842 25 ft 3 kts 318°
2026-05-06 13:40 -8.74656 115.16807 30 ft 7 kts 278°
2026-05-06 13:40 -8.74664 115.16748 28 ft 10 kts 260°
2026-05-06 13:41 -8.74673 115.16671 26 ft 12 kts 266°
2026-05-06 13:41 -8.74678 115.16581 25 ft 12 kts 269°
2026-05-06 13:41 -8.74679 115.16529 25 ft 4 kts 268°
2026-05-06 13:41 -8.74680 115.16519 25 ft 1 kts 268°
2026-05-06 13:42 -8.74680 115.16518 25 ft 0 kts 268°
2026-05-06 13:45 -8.74685 115.16357 29 ft 17 kts 268°
2026-05-06 13:45 -8.74693 115.16233 26 ft 18 kts 265°
2026-05-06 13:46 -8.74701 115.16100 29 ft 19 kts 267°
2026-05-06 13:46 -8.74706 115.15967 25 ft 19 kts 268°
2026-05-06 13:46 -8.74711 115.15833 29 ft 19 kts 268°
2026-05-06 13:46 -8.74716 115.15698 25 ft 19 kts 268°
2026-05-06 13:47 -8.74721 115.15564 25 ft 19 kts 268°
2026-05-06 13:47 -8.74727 115.15448 29 ft 10 kts 261°
2026-05-06 13:47 -8.74762 115.15401 29 ft 5 kts 204°
2026-05-06 13:47 -8.74776 115.15396 26 ft 0 kts 197°
2026-05-06 13:49 -8.74783 115.15394 25 ft 4 kts 194°
2026-05-06 13:49 -8.74843 115.15392 29 ft 4 kts 177°
2026-05-06 13:49 -8.74872 115.15399 28 ft 5 kts 152°
2026-05-06 13:49 -8.74885 115.15429 30 ft 6 kts 97°
2026-05-06 13:50 -8.74887 115.15540 29 ft 37 kts 89°
2026-05-06 13:50 -8.74866 115.16079 26 ft 116 kts 88°
2026-05-06 13:50 -8.74825 115.17152 29 ft 188 kts 88°
2026-05-06 13:50 -8.74741 115.18581 547 ft 201 kts 87°
2026-05-06 13:51 -8.74624 115.19961 1574 ft 204 kts 88°
2026-05-06 13:51 -8.74568 115.21427 2176 ft 213 kts 89°
2026-05-06 13:51 -8.74529 115.22955 2445 ft 220 kts 89°
2026-05-06 13:51 -8.74483 115.24533 2741 ft 230 kts 90°
2026-05-06 13:52 -8.74431 115.26189 3055 ft 239 kts 89°
2026-05-06 13:52 -8.74372 115.27887 3446 ft 245 kts 88°
2026-05-06 13:52 -8.74307 115.29650 3712 ft 258 kts 89°
2026-05-06 13:52 -8.74237 115.31482 4119 ft 262 kts 88°
2026-05-06 13:53 -8.74164 115.33327 4674 ft 262 kts 88°
2026-05-06 13:53 -8.74088 115.35179 5131 ft 265 kts 88°
2026-05-06 13:53 -8.74012 115.37058 5557 ft 269 kts 88°
2026-05-06 13:53 -8.73936 115.38934 6109 ft 267 kts 88°
2026-05-06 13:54 -8.73857 115.40815 6565 ft 268 kts 88°
2026-05-06 13:54 -8.73768 115.42661 6984 ft 269 kts 83°
2026-05-06 13:54 -8.73084 115.44423 7142 ft 275 kts 48°
2026-05-06 13:54 -8.71534 115.45543 7494 ft 279 kts 21°
2026-05-06 13:55 -8.69602 115.45887 7782 ft 289 kts 359°
2026-05-06 13:55 -8.67580 115.45599 8052 ft 299 kts 343°
2026-05-06 13:55 -8.65723 115.44622 8384 ft 305 kts 326°
2026-05-06 13:55 -8.64048 115.43306 8889 ft 305 kts 322°
2026-05-06 13:56 -8.62406 115.41931 9352 ft 308 kts 322°
2026-05-06 13:56 -8.60761 115.40567 9765 ft 312 kts 323°
2026-05-06 13:56 -8.59145 115.39102 10090 ft 314 kts 308°
2026-05-06 13:56 -8.58146 115.37109 10221 ft 324 kts 287°
2026-05-06 13:57 -8.57540 115.34877 10393 ft 335 kts 285°
2026-05-06 13:57 -8.56916 115.32552 10512 ft 349 kts 286°
2026-05-06 13:57 -8.56248 115.30143 10705 ft 363 kts 286°
2026-05-06 13:57 -8.55532 115.27647 10826 ft 377 kts 287°
2026-05-06 13:58 -8.54779 115.25089 11193 ft 382 kts 287°
2026-05-06 13:58 -8.54018 115.22543 11661 ft 384 kts 287°
2026-05-06 13:58 -8.53239 115.19961 12185 ft 386 kts 287°
2026-05-06 13:58 -8.52451 115.17360 12640 ft 388 kts 286°
2026-05-06 13:59 -8.51655 115.14739 13073 ft 392 kts 286°
2026-05-06 13:59 -8.50851 115.12089 13473 ft 397 kts 286°
2026-05-06 13:59 -8.50037 115.09408 13876 ft 400 kts 286°
2026-05-06 13:59 -8.49218 115.06708 14225 ft 405 kts 285°
2026-05-06 14:00 -8.48389 115.03977 14614 ft 407 kts 286°
2026-05-06 14:00 -8.47506 115.01261 15012 ft 407 kts 292°
2026-05-06 14:00 -8.46051 114.98784 15306 ft 414 kts 308°
2026-05-06 14:00 -8.43968 114.96765 15710 ft 418 kts 323°
2026-05-06 14:01 -8.41482 114.95231 16078 ft 420 kts 329°
2026-05-06 14:01 -8.38927 114.93751 16436 ft 424 kts 328°
2026-05-06 14:01 -8.36387 114.92226 16876 ft 424 kts 327°
2026-05-06 14:01 -8.33887 114.90705 17283 ft 426 kts 328°
2026-05-06 14:02 -8.31296 114.89156 17675 ft 429 kts 328°
2026-05-06 14:02 -8.28743 114.87644 18048 ft 431 kts 328°
2026-05-06 14:02 -8.26140 114.86106 18385 ft 434 kts 328°
2026-05-06 14:02 -8.23530 114.84564 18719 ft 436 kts 328°
2026-05-06 14:03 -8.20912 114.83015 19059 ft 437 kts 328°
2026-05-06 14:03 -8.18285 114.81460 19407 ft 439 kts 328°
2026-05-06 14:03 -8.15650 114.79899 19714 ft 441 kts 328°
2026-05-06 14:03 -8.13002 114.78328 20045 ft 443 kts 328°
2026-05-06 14:04 -8.10336 114.76748 20374 ft 444 kts 328°
2026-05-06 14:04 -8.07665 114.75164 20681 ft 446 kts 328°
2026-05-06 14:04 -8.04974 114.73569 20999 ft 448 kts 328°
2026-05-06 14:04 -8.02279 114.71972 21313 ft 450 kts 328°
2026-05-06 14:05 -7.99607 114.70389 21622 ft 452 kts 328°
2026-05-06 14:05 -7.96893 114.68780 21916 ft 454 kts 328°
2026-05-06 14:05 -7.94162 114.67162 22213 ft 456 kts 328°
2026-05-06 14:05 -7.91422 114.65539 22510 ft 457 kts 328°
2026-05-06 14:06 -7.88663 114.63921 22795 ft 460 kts 330°
2026-05-06 14:06 -7.85858 114.62374 23075 ft 462 kts 331°
2026-05-06 14:06 -7.83003 114.60850 23362 ft 464 kts 331°
2026-05-06 14:06 -7.80140 114.59326 23616 ft 465 kts 331°
2026-05-06 14:07 -7.77278 114.57791 23836 ft 467 kts 331°
2026-05-06 14:07 -7.74407 114.56238 24048 ft 469 kts 330°
2026-05-06 14:07 -7.71525 114.54672 24270 ft 471 kts 330°
2026-05-06 14:07 -7.68637 114.53100 24472 ft 472 kts 329°
2026-05-06 14:08 -7.65962 114.51268 24601 ft 472 kts 316°
2026-05-06 14:08 -7.63767 114.48810 24763 ft 472 kts 304°
2026-05-06 14:08 -7.62137 114.45952 25007 ft 471 kts 291°
2026-05-06 14:08 -7.61040 114.42849 25177 ft 471 kts 287°
2026-05-06 14:09 -7.59984 114.39705 25327 ft 474 kts 288°
2026-05-06 14:09 -7.58870 114.36568 25572 ft 475 kts 289°
2026-05-06 14:09 -7.57683 114.33466 25810 ft 475 kts 294°
2026-05-06 14:09 -7.56019 114.30568 25927 ft 480 kts 305°
2026-05-06 14:10 -7.53858 114.27980 26118 ft 484 kts 314°
2026-05-06 14:10 -7.51306 114.25766 26333 ft 485 kts 323°
2026-05-06 14:10 -7.48544 114.23787 26524 ft 487 kts 323°
2026-05-06 14:10 -7.45789 114.21854 26691 ft 489 kts 323°
2026-05-06 14:11 -7.42992 114.19888 26882 ft 491 kts 323°
2026-05-06 14:11 -7.40191 114.17901 27086 ft 493 kts 323°
2026-05-06 14:11 -7.37396 114.15898 27282 ft 494 kts 323°
2026-05-06 14:11 -7.34593 114.13874 27487 ft 495 kts 322°
2026-05-06 14:12 -7.31789 114.11841 27653 ft 497 kts 322°
2026-05-06 14:12 -7.28973 114.09798 27789 ft 500 kts 322°
2026-05-06 14:12 -7.26146 114.07746 27842 ft 501 kts 323°
2026-05-06 14:12 -7.23339 114.05710 27876 ft 505 kts 322°
2026-05-06 14:13 -7.20473 114.03632 27885 ft 510 kts 323°
2026-05-06 14:13 -7.17581 114.01537 27891 ft 513 kts 323°
2026-05-06 14:13 -7.14683 113.99440 27888 ft 515 kts 323°
2026-05-06 14:13 -7.11762 113.97325 27888 ft 517 kts 323°
2026-05-06 14:14 -7.08835 113.95207 27892 ft 518 kts 323°
2026-05-06 14:14 -7.05900 113.93082 27887 ft 519 kts 323°
2026-05-06 14:14 -7.02967 113.90959 27887 ft 520 kts 323°
2026-05-06 14:14 -7.00029 113.88834 27881 ft 520 kts 323°
2026-05-06 14:15 -6.97119 113.86729 27882 ft 520 kts 323°
2026-05-06 14:15 -6.94141 113.84574 27878 ft 520 kts 323°
2026-05-06 14:15 -6.91202 113.82447 27880 ft 520 kts 323°
2026-05-06 14:15 -6.88308 113.80353 27880 ft 519 kts 323°
2026-05-06 14:16 -6.85375 113.78230 27879 ft 519 kts 323°
2026-05-06 14:16 -6.82445 113.76109 27881 ft 518 kts 323°
2026-05-06 14:16 -6.80470 113.74680 27881 ft 518 kts 323°
2026-05-06 14:16 -6.76589 113.71872 27878 ft 518 kts 323°
2026-05-06 14:17 -6.73659 113.69754 27880 ft 518 kts 323°
2026-05-06 14:17 -6.70728 113.67634 27882 ft 517 kts 323°
2026-05-06 14:17 -6.67841 113.65547 27880 ft 517 kts 323°
2026-05-06 14:17 -6.64921 113.63436 27878 ft 517 kts 323°
2026-05-06 14:18 -6.61996 113.61321 27880 ft 517 kts 323°
2026-05-06 14:18 -6.59079 113.59212 27879 ft 517 kts 323°
2026-05-06 14:18 -6.57094 113.57778 27880 ft 517 kts 323°
2026-05-06 14:18 -6.54198 113.55686 27982 ft 518 kts 323°
2026-05-06 14:19 -6.51275 113.53574 28228 ft 517 kts 323°
2026-05-06 14:19 -6.48361 113.51469 28416 ft 517 kts 323°
2026-05-06 14:19 -6.45444 113.49362 28615 ft 516 kts 323°
2026-05-06 14:19 -6.42525 113.47251 28824 ft 516 kts 323°
2026-05-06 14:20 -6.39613 113.45149 29020 ft 515 kts 323°
2026-05-06 14:20 -6.36700 113.43046 29220 ft 515 kts 322°
2026-05-06 14:20 -6.33795 113.40949 29443 ft 514 kts 323°
2026-05-06 14:20 -6.30887 113.38850 29653 ft 513 kts 323°
2026-05-06 14:21 -6.28004 113.36735 29795 ft 513 kts 320°
2026-05-06 14:21 -6.25330 113.34414 29848 ft 514 kts 315°
2026-05-06 14:21 -6.20591 113.29058 29894 ft 512 kts 306°
2026-05-06 14:22 -6.16289 113.23368 29882 ft 510 kts 305°
2026-05-06 14:22 -6.11992 113.17691 29874 ft 509 kts 306°
2026-05-06 14:23 -6.07670 113.12041 29895 ft 509 kts 306°
2026-05-06 14:23 -6.03334 113.06403 29892 ft 509 kts 306°
2026-05-06 14:24 -5.98997 113.00769 29890 ft 510 kts 306°
2026-05-06 14:24 -5.94680 112.95159 29881 ft 511 kts 306°
2026-05-06 14:25 -5.90323 112.89497 29871 ft 511 kts 306°
2026-05-06 14:25 -5.85970 112.83838 29877 ft 511 kts 306°
2026-05-06 14:26 -5.81639 112.78213 29894 ft 511 kts 306°
2026-05-06 14:26 -5.77287 112.72562 29898 ft 511 kts 306°
2026-05-06 14:27 -5.72923 112.66897 29896 ft 512 kts 306°
2026-05-06 14:27 -5.68570 112.61247 29897 ft 512 kts 307°
2026-05-06 14:28 -5.64215 112.55597 29882 ft 512 kts 307°
2026-05-06 14:28 -5.59857 112.49944 29876 ft 512 kts 307°
2026-05-06 14:29 -5.55526 112.44327 29895 ft 512 kts 307°
2026-05-06 14:29 -5.51160 112.38669 29878 ft 512 kts 307°
2026-05-06 14:30 -5.46798 112.33015 29878 ft 512 kts 307°
2026-05-06 14:30 -5.42433 112.27358 29895 ft 512 kts 307°
2026-05-06 14:31 -5.38072 112.21709 29893 ft 512 kts 307°
2026-05-06 14:31 -5.33736 112.16094 29874 ft 512 kts 307°
2026-05-06 14:32 -5.29371 112.10443 29878 ft 512 kts 307°
2026-05-06 14:32 -5.24999 112.04784 29892 ft 512 kts 307°
2026-05-06 14:33 -5.20623 111.99121 29875 ft 513 kts 307°
2026-05-06 14:33 -5.16242 111.93453 29878 ft 514 kts 307°
2026-05-06 14:34 -5.11858 111.87783 29897 ft 514 kts 307°
2026-05-06 14:34 -5.07483 111.82126 29894 ft 515 kts 307°
2026-05-06 14:35 -5.03089 111.76446 29876 ft 515 kts 308°
2026-05-06 14:35 -4.98722 111.70802 29874 ft 515 kts 308°
2026-05-06 14:36 -4.94333 111.65130 29897 ft 514 kts 308°
2026-05-06 14:36 -4.89939 111.59454 29873 ft 514 kts 308°
2026-05-06 14:37 -4.85560 111.53798 29878 ft 513 kts 308°
2026-05-06 14:37 -4.81184 111.48149 29878 ft 513 kts 308°
2026-05-06 14:38 -4.76827 111.42523 29875 ft 513 kts 308°
2026-05-06 14:38 -4.72454 111.36879 29880 ft 513 kts 308°
2026-05-06 14:39 -4.68075 111.31228 29895 ft 513 kts 308°
2026-05-06 14:39 -4.63688 111.25567 29884 ft 514 kts 308°
2026-05-06 14:40 -4.59296 111.19894 29876 ft 514 kts 308°
2026-05-06 14:40 -4.54944 111.14241 29878 ft 515 kts 308°
2026-05-06 14:41 -4.50567 111.08551 29881 ft 515 kts 308°
2026-05-06 14:41 -4.46184 111.02859 29878 ft 516 kts 308°
2026-05-06 14:42 -4.41790 110.97154 29875 ft 516 kts 308°
2026-05-06 14:42 -4.37402 110.91460 29894 ft 516 kts 308°
2026-05-06 14:43 -4.33036 110.85796 29872 ft 516 kts 308°
2026-05-06 14:43 -4.28648 110.80103 29873 ft 516 kts 308°
2026-05-06 14:44 -4.24256 110.74407 29891 ft 516 kts 308°
2026-05-06 14:45 -4.17662 110.65857 29896 ft 516 kts 308°
2026-05-06 14:45 -4.13273 110.60167 29878 ft 516 kts 308°
2026-05-06 14:46 -4.08902 110.54502 29877 ft 516 kts 308°
2026-05-06 14:46 -4.04501 110.48798 29884 ft 517 kts 308°
2026-05-06 14:47 -4.00094 110.43088 29897 ft 518 kts 308°
2026-05-06 14:47 -3.95668 110.37361 29897 ft 520 kts 309°
2026-05-06 14:48 -3.91001 110.31798 29895 ft 522 kts 312°
2026-05-06 14:48 -3.86197 110.26327 29895 ft 524 kts 312°
2026-05-06 14:49 -3.81420 110.20840 29876 ft 525 kts 311°
2026-05-06 14:49 -3.76661 110.15305 29879 ft 526 kts 311°
2026-05-06 14:50 -3.71897 110.09744 29875 ft 525 kts 311°
2026-05-06 14:50 -3.67140 110.04193 29879 ft 524 kts 311°
2026-05-06 14:51 -3.62372 109.98637 29877 ft 526 kts 311°
2026-05-06 14:51 -3.57601 109.93078 29876 ft 525 kts 311°
2026-05-06 14:52 -3.52844 109.87538 29881 ft 524 kts 311°
2026-05-06 14:52 -3.48077 109.81987 29883 ft 525 kts 311°
2026-05-06 14:53 -3.43338 109.76468 29872 ft 525 kts 311°
2026-05-06 14:53 -3.38602 109.70953 29875 ft 518 kts 311°
2026-05-06 14:54 -3.33913 109.65496 29889 ft 516 kts 311°
2026-05-06 14:54 -3.29227 109.60041 29876 ft 516 kts 311°
2026-05-06 14:55 -3.24539 109.54587 29879 ft 517 kts 311°
2026-05-06 14:55 -3.19833 109.49112 29878 ft 519 kts 311°
2026-05-06 14:56 -3.15152 109.43666 29895 ft 519 kts 311°
2026-05-06 14:56 -3.10430 109.38173 29877 ft 519 kts 311°
2026-05-06 14:57 -3.05710 109.32684 29876 ft 519 kts 311°
2026-05-06 14:57 -3.00997 109.27203 29895 ft 519 kts 312°
2026-05-06 14:58 -2.96306 109.21749 29879 ft 519 kts 312°
2026-05-06 14:58 -2.91595 109.16269 29879 ft 518 kts 311°
2026-05-06 14:59 -2.86889 109.10808 29882 ft 518 kts 312°
2026-05-06 14:59 -2.82202 109.05394 29875 ft 518 kts 312°
2026-05-06 15:00 -2.77487 108.99951 29899 ft 517 kts 312°
2026-05-06 15:00 -2.72771 108.94501 29874 ft 517 kts 312°
2026-05-06 15:01 -2.68057 108.89053 29890 ft 517 kts 312°
2026-05-06 15:01 -2.63352 108.83615 29901 ft 517 kts 312°
2026-05-06 15:02 -2.58645 108.78177 29879 ft 517 kts 312°
2026-05-06 15:02 -2.53940 108.72740 29886 ft 516 kts 312°
2026-05-06 15:03 -2.50026 108.68218 29887 ft 517 kts 312°
2026-05-06 15:03 -2.45325 108.62782 29883 ft 517 kts 311°
2026-05-06 15:04 -2.40654 108.57366 29890 ft 517 kts 311°
2026-05-06 15:04 -2.35955 108.51916 29881 ft 517 kts 311°
2026-05-06 15:05 -2.31239 108.46447 29887 ft 517 kts 311°
2026-05-06 15:05 -2.26529 108.40989 29881 ft 518 kts 311°
2026-05-06 15:06 -2.21823 108.35535 29879 ft 518 kts 311°
2026-05-06 15:06 -2.17148 108.30116 29883 ft 518 kts 311°
2026-05-06 15:07 -2.12440 108.24660 29885 ft 518 kts 311°
2026-05-06 15:07 -2.07734 108.19206 29886 ft 518 kts 311°
2026-05-06 15:08 -2.03022 108.13746 29885 ft 518 kts 311°
2026-05-06 15:08 -1.98322 108.08292 29890 ft 518 kts 311°
2026-05-06 15:09 -1.93650 108.02868 29888 ft 518 kts 311°
2026-05-06 15:09 -1.88950 107.97411 29885 ft 518 kts 311°
2026-05-06 15:10 -1.84247 107.91953 29884 ft 518 kts 311°
2026-05-06 15:10 -1.79536 107.86485 29886 ft 518 kts 311°
2026-05-06 15:11 -1.74833 107.81028 29886 ft 518 kts 311°
2026-05-06 15:11 -1.70161 107.75606 29885 ft 518 kts 311°
2026-05-06 15:12 -1.65461 107.70153 29892 ft 518 kts 311°
2026-05-06 15:12 -1.60752 107.64689 29890 ft 518 kts 311°
2026-05-06 15:13 -1.56045 107.59228 29893 ft 518 kts 311°
2026-05-06 15:13 -1.51342 107.53772 29891 ft 518 kts 311°
2026-05-06 15:14 -1.46666 107.48348 29891 ft 518 kts 311°
2026-05-06 15:14 -1.41954 107.42881 29891 ft 518 kts 311°
2026-05-06 15:15 -1.37239 107.37411 29892 ft 518 kts 311°
2026-05-06 15:15 -1.32483 107.31987 29892 ft 518 kts 312°
2026-05-06 15:16 -1.27679 107.26605 29890 ft 519 kts 312°
2026-05-06 15:16 -1.22902 107.21248 29890 ft 519 kts 312°
2026-05-06 15:17 -1.18107 107.15851 29895 ft 519 kts 312°
2026-05-06 15:17 -1.13314 107.10449 29896 ft 519 kts 312°
2026-05-06 15:18 -1.08512 107.05038 29889 ft 519 kts 312°
2026-05-06 15:18 -1.03716 106.99636 29888 ft 519 kts 312°
2026-05-06 15:19 -0.98954 106.94272 29895 ft 519 kts 312°
2026-05-06 15:19 -0.94156 106.88868 29893 ft 519 kts 312°
2026-05-06 15:20 -0.89363 106.83470 29894 ft 519 kts 312°
2026-05-06 15:20 -0.84577 106.78080 29890 ft 519 kts 312°
2026-05-06 15:21 -0.79781 106.72679 29890 ft 519 kts 313°
2026-05-06 15:21 -0.74984 106.67276 29898 ft 519 kts 313°
2026-05-06 15:22 -0.70220 106.61910 29892 ft 519 kts 313°
2026-05-06 15:22 -0.65421 106.56505 29894 ft 520 kts 313°
2026-05-06 15:23 -0.60539 106.51172 29894 ft 519 kts 317°
2026-05-06 15:23 -0.55157 106.46362 29900 ft 518 kts 320°
2026-05-06 15:24 -0.49757 106.41650 29894 ft 519 kts 320°
2026-05-06 15:24 -0.44344 106.36884 29897 ft 519 kts 319°
2026-05-06 15:25 -0.38933 106.32081 29894 ft 519 kts 319°
2026-05-06 15:25 -0.33528 106.27274 29891 ft 519 kts 319°
2026-05-06 15:26 -0.28167 106.22509 29896 ft 519 kts 319°
2026-05-06 15:26 -0.22774 106.17718 29892 ft 518 kts 319°
2026-05-06 15:27 -0.17377 106.12925 29896 ft 518 kts 319°
2026-05-06 15:27 -0.11983 106.08133 29896 ft 518 kts 319°
2026-05-06 15:28 -0.06603 106.03355 29894 ft 518 kts 319°
2026-05-06 15:28 -0.01246 105.98597 29897 ft 518 kts 319°
2026-05-06 15:29 0.04143 105.93809 29896 ft 518 kts 319°
2026-05-06 15:29 0.09537 105.89019 29893 ft 518 kts 319°
2026-05-06 15:30 0.14917 105.84240 29888 ft 517 kts 319°
2026-05-06 15:30 0.20302 105.79457 29895 ft 517 kts 319°
2026-05-06 15:31 0.25654 105.74703 29898 ft 517 kts 319°
2026-05-06 15:31 0.31030 105.69927 29896 ft 517 kts 319°
2026-05-06 15:32 0.39109 105.62750 29895 ft 517 kts 319°
2026-05-06 15:32 0.44486 105.57973 29897 ft 517 kts 319°
2026-05-06 15:33 0.49871 105.53189 29895 ft 517 kts 319°
2026-05-06 15:33 0.55257 105.48403 29902 ft 518 kts 319°
2026-05-06 15:34 0.60567 105.43549 29893 ft 517 kts 313°
2026-05-06 15:34 0.64548 105.37619 29903 ft 519 kts 296°
2026-05-06 15:35 0.66891 105.30798 29904 ft 519 kts 286°
2026-05-06 15:35 0.68856 105.23834 29896 ft 521 kts 286°
2026-05-06 15:36 0.70877 105.16868 29897 ft 522 kts 287°
2026-05-06 15:36 0.72947 105.09918 29897 ft 523 kts 287°
2026-05-06 15:37 0.75035 105.02956 29894 ft 523 kts 287°
2026-05-06 15:37 0.77119 104.95988 29890 ft 522 kts 287°
2026-05-06 15:38 0.79180 104.89086 29892 ft 522 kts 287°
2026-05-06 15:38 0.80872 104.83419 29886 ft 521 kts 287°
2026-05-06 15:39 0.82948 104.76468 29888 ft 521 kts 287°
2026-05-06 15:39 0.85019 104.69528 29888 ft 521 kts 287°
2026-05-06 15:40 0.87079 104.62628 29911 ft 521 kts 287°
2026-05-06 15:40 0.89228 104.55696 29908 ft 520 kts 292°
2026-05-06 15:41 0.92785 104.49434 29919 ft 518 kts 308°
2026-05-06 15:41 0.97695 104.44266 29917 ft 516 kts 317°
2026-05-06 15:42 1.02955 104.39348 29898 ft 517 kts 317°
2026-05-06 15:42 1.08154 104.34401 29884 ft 518 kts 317°
2026-05-06 15:43 1.13346 104.29391 29883 ft 518 kts 317°
2026-05-06 15:43 1.18533 104.24380 29884 ft 518 kts 317°
2026-05-06 15:44 1.23728 104.19368 29885 ft 519 kts 317°
2026-05-06 15:44 1.28919 104.14361 29882 ft 519 kts 317°
2026-05-06 15:45 1.34115 104.09339 29886 ft 519 kts 317°
2026-05-06 15:45 1.39270 104.04354 29887 ft 519 kts 316°
2026-05-06 15:46 1.43957 103.98860 29879 ft 520 kts 305°
2026-05-06 15:46 1.48006 103.92868 29890 ft 520 kts 304°
2026-05-06 15:47 1.52072 103.86877 29883 ft 520 kts 305°
2026-05-06 15:47 1.56148 103.80961 29886 ft 520 kts 305°
2026-05-06 15:48 1.59590 103.75978 29884 ft 520 kts 305°
2026-05-06 15:48 1.64477 103.69139 29882 ft 519 kts 312°
2026-05-06 15:49 1.69830 103.64352 29889 ft 517 kts 326°
2026-05-06 15:49 1.75049 103.61367 29889 ft 515 kts 334°
2026-05-06 15:50 1.81396 103.58126 29885 ft 516 kts 334°
2026-05-06 15:50 1.87774 103.54806 29895 ft 516 kts 333°
2026-05-06 15:51 1.94129 103.51442 29895 ft 516 kts 333°
2026-05-06 15:51 2.00478 103.48075 29896 ft 517 kts 333°
2026-05-06 15:52 2.06803 103.44727 29897 ft 517 kts 333°
2026-05-06 15:52 2.12776 103.40828 29898 ft 517 kts 314°
2026-05-06 15:53 2.14996 103.37999 29909 ft 518 kts 302°
2026-05-06 15:53 2.16553 103.34742 29899 ft 519 kts 287°
2026-05-06 15:53 2.18460 103.27776 29905 ft 521 kts 285°
2026-05-06 15:54 2.20422 103.20777 29914 ft 525 kts 286°
2026-05-06 15:54 2.22477 103.13750 29905 ft 527 kts 287°
2026-05-06 15:55 2.24539 103.06764 29902 ft 527 kts 287°
2026-05-06 15:55 2.26605 102.99738 29904 ft 525 kts 287°
2026-05-06 15:56 2.28657 102.92743 29903 ft 524 kts 287°
2026-05-06 15:56 2.30706 102.85757 29902 ft 522 kts 287°
2026-05-06 15:57 2.32727 102.78774 29904 ft 522 kts 286°
2026-05-06 15:57 2.34756 102.71809 29902 ft 521 kts 287°
2026-05-06 15:58 2.36795 102.64850 29905 ft 522 kts 287°
2026-05-06 15:58 2.38839 102.57868 29901 ft 523 kts 287°
2026-05-06 15:59 2.40873 102.50903 29902 ft 524 kts 287°
2026-05-06 15:59 2.42918 102.43899 29907 ft 525 kts 287°
2026-05-06 16:00 2.45090 102.36930 29893 ft 523 kts 294°
2026-05-06 16:00 2.46807 102.33742 29894 ft 522 kts 305°
2026-05-06 16:00 2.49021 102.30876 29902 ft 521 kts 314°
2026-05-06 16:01 2.54539 102.26277 29900 ft 519 kts 325°
2026-05-06 16:01 2.60312 102.21913 29891 ft 521 kts 323°
2026-05-06 16:02 2.66021 102.17418 29881 ft 521 kts 323°
2026-05-06 16:02 2.71713 102.12925 29882 ft 520 kts 323°
2026-05-06 16:03 2.77366 102.08475 29878 ft 520 kts 323°
2026-05-06 16:03 2.83057 102.04000 29868 ft 519 kts 323°
2026-05-06 16:04 2.88722 101.99547 29878 ft 517 kts 323°
2026-05-06 16:04 2.94375 101.95101 29871 ft 517 kts 323°
2026-05-06 16:05 3.00037 101.90647 29873 ft 516 kts 323°
2026-05-06 16:05 3.05681 101.86206 29881 ft 516 kts 323°
2026-05-06 16:06 3.11300 101.81785 29881 ft 517 kts 323°
2026-05-06 16:06 3.16961 101.77329 29880 ft 517 kts 323°
2026-05-06 16:07 3.22618 101.72876 29882 ft 517 kts 323°
2026-05-06 16:07 3.28246 101.68445 29878 ft 517 kts 323°
2026-05-06 16:08 3.34130 101.64314 29880 ft 516 kts 331°
2026-05-06 16:08 3.40592 101.61225 29885 ft 514 kts 338°
2026-05-06 16:09 3.47174 101.58389 29872 ft 514 kts 338°
2026-05-06 16:09 3.53738 101.55514 29880 ft 515 kts 337°
2026-05-06 16:10 3.60284 101.52610 29869 ft 515 kts 337°
2026-05-06 16:10 3.66790 101.49718 29868 ft 515 kts 337°
2026-05-06 16:11 3.73340 101.46810 29871 ft 515 kts 337°
2026-05-06 16:11 3.79892 101.43902 29873 ft 515 kts 337°
2026-05-06 16:12 3.86445 101.40993 29878 ft 515 kts 337°
2026-05-06 16:12 3.92994 101.38082 29879 ft 514 kts 337°
2026-05-06 16:13 3.99515 101.35181 29874 ft 514 kts 337°
2026-05-06 16:13 4.06069 101.32264 29878 ft 514 kts 337°
2026-05-06 16:14 4.12603 101.29356 29911 ft 514 kts 337°
2026-05-06 16:14 4.19151 101.26441 29908 ft 514 kts 337°
2026-05-06 16:15 4.25699 101.23526 29907 ft 514 kts 337°
2026-05-06 16:15 4.32223 101.20620 29900 ft 514 kts 337°
2026-05-06 16:16 4.38778 101.17700 29885 ft 514 kts 337°
2026-05-06 16:16 4.45330 101.14781 29886 ft 515 kts 337°
2026-05-06 16:17 4.51831 101.11883 29887 ft 514 kts 337°
2026-05-06 16:17 4.58371 101.08971 29883 ft 514 kts 337°
2026-05-06 16:18 4.64962 101.06113 29885 ft 514 kts 338°
2026-05-06 16:18 4.71553 101.03292 29886 ft 515 kts 338°
2026-05-06 16:19 4.78103 101.00478 29893 ft 515 kts 337°
2026-05-06 16:19 4.84694 100.97636 29893 ft 515 kts 337°
2026-05-06 16:20 4.91297 100.94785 29893 ft 515 kts 337°
2026-05-06 16:20 4.97837 100.91962 29888 ft 515 kts 337°
2026-05-06 16:21 5.04435 100.89113 29888 ft 515 kts 337°
2026-05-06 16:21 5.11020 100.86270 29880 ft 515 kts 337°
2026-05-06 16:22 5.17609 100.83424 29887 ft 515 kts 337°
2026-05-06 16:22 5.24150 100.80598 29876 ft 515 kts 337°
2026-05-06 16:23 5.30735 100.77752 29877 ft 514 kts 337°
2026-05-06 16:23 5.37306 100.74878 29872 ft 514 kts 335°
2026-05-06 16:24 5.43584 100.71425 29875 ft 515 kts 330°
2026-05-06 16:24 5.49754 100.67862 29873 ft 515 kts 330°
2026-05-06 16:25 5.55988 100.64302 29865 ft 515 kts 331°
2026-05-06 16:25 5.62252 100.60753 29864 ft 515 kts 331°
2026-05-06 16:26 5.68453 100.57243 29862 ft 515 kts 331°
2026-05-06 16:26 5.74707 100.53696 29859 ft 515 kts 331°
2026-05-06 16:27 5.80942 100.50132 29864 ft 515 kts 330°
2026-05-06 16:27 5.87100 100.46439 29863 ft 515 kts 329°
2026-05-06 16:28 5.93241 100.42716 29861 ft 515 kts 329°
2026-05-06 16:28 5.99354 100.39034 29858 ft 515 kts 329°
2026-05-06 16:29 6.05523 100.35333 29863 ft 515 kts 329°
2026-05-06 16:29 6.11687 100.31635 29859 ft 515 kts 329°
2026-05-06 16:30 6.15755 100.29193 29857 ft 515 kts 329°
2026-05-06 16:30 6.23944 100.24275 29866 ft 515 kts 329°
2026-05-06 16:31 6.30107 100.20572 29867 ft 515 kts 329°
2026-05-06 16:31 6.36269 100.16868 29858 ft 515 kts 329°
2026-05-06 16:32 6.42248 100.12979 29853 ft 515 kts 322°
2026-05-06 16:32 6.47527 100.08105 29859 ft 516 kts 313°
2026-05-06 16:33 6.52322 100.02735 29863 ft 516 kts 312°
2026-05-06 16:34 6.59485 99.94727 29863 ft 517 kts 313°
2026-05-06 16:34 6.64330 99.89370 29855 ft 517 kts 313°
2026-05-06 16:35 6.69152 99.84049 29860 ft 517 kts 313°
2026-05-06 16:35 6.73949 99.78751 29855 ft 517 kts 313°
2026-05-06 16:36 6.77875 99.74410 29864 ft 517 kts 313°
2026-05-06 16:36 6.82717 99.69055 29856 ft 517 kts 313°
2026-05-06 16:37 6.87562 99.63694 29854 ft 517 kts 313°
2026-05-06 16:37 6.92399 99.58341 29854 ft 517 kts 313°
2026-05-06 16:38 6.97237 99.52984 29853 ft 517 kts 313°
2026-05-06 16:38 7.02091 99.47636 29850 ft 517 kts 313°
2026-05-06 16:39 7.06996 99.42411 29852 ft 517 kts 314°
2026-05-06 16:39 7.11956 99.37171 29854 ft 517 kts 314°
2026-05-06 16:40 7.16901 99.31920 29850 ft 517 kts 314°
2026-05-06 16:40 7.21846 99.26648 29855 ft 517 kts 314°
2026-05-06 16:41 7.26785 99.21378 29850 ft 517 kts 314°